BEIDOU-3 M21 (C43)

Last updated on Tue Aug 25 2026 00:03:26 GMT+0000 (Coordinated Universal Time)

1 44794U 19078B 26235.34230932 -.00000037 00000+0 00000+0 0 9996 2 44794 53.8449 297.4202 0002887 39.0074 321.0876 1.86227958 45900
UTC large
Height (km)
Speed (km/s)
/
Latitude / Longitude
Inclination (degrees)
Orbital Period (minutes)
Azimuth
Elevation
Range (km)
Doppler Factor

Next 0 passes for location: London (51.5072 / 0.1276)

No passes found over London.
BEIDOU-3 M21 (C43)